Medicine Hat, Alberta

1:52 AM MDT on June 24, 2017 (GMT -0600)
Medicine Hat

Weather History for CYXH - April, 2014

Change the Weather History Date:

Friday, April 4, 2014

  Actual Average Record
Temperature  
Mean Temperature 47 °F -  
Max Temperature 57 °F 57 °F 71 °F (2012)
Min Temperature 35 °F 32 °F -26 °F (2013)
Degree Days  
Heating Degree Days 18    
Moisture  
Dew Point 29 °F    
Average Humidity 55    
Maximum Humidity 75    
Minimum Humidity 36    
Precipitation  
Precipitation 0.00 in 0.04 in - ()
Sea Level Pressure  
Sea Level Pressure 29.72 in    
Wind  
Wind Speed 15 mph ()    
Max Wind Speed 29 mph    
Max Gust Speed 37 mph    
Visibility 9.6 miles    
Events Rain    
Averages and records for this station are not official NWS values.
T = Trace of Precipitation, MM = Missing Value Source: Averaged Metar Reports

Daily Weather History Graph

Daily Weather History Graph

Search for Another Location

Airport or City:

Trip Planner

Search our weather history database for the weather conditions in past years. The results will help you decide how hot, cold, wet, or windy it might be!

Date:

Astronomy

Apr. 04, 2014 Rise Set
Actual Time 6:52 AM MDT 7:59 PM MDT
Civil Twilight 6:19 AM MDT 8:32 PM MDT
Nautical Twilight 5:40 AM MDT 9:12 PM MDT
Astronomical Twilight 4:57 AM MDT 9:55 PM MDT
Moon 9:51 AM MDT (4/4) 12:41 AM MDT (4/4)
Length of Visible Light 14h 13m
Length of Day
13h 06m
Waxing Crescent, 26% of the Moon is Illuminated
Apr 4
Waxing Crescent
Apr 7
First Quarter
Apr 15
Full
Apr 22
Last Quarter
Apr 29
New

Hourly Weather History & Observations

Time (MDT) Temp. Windchill Dew Point Humidity Pressure Visibility Wind Dir Wind Speed Gust Speed Precip Events Conditions
12:32 AM 39.2 °F 29.8 °F 28.4 °F 65% 29.87 in 9.0 mi SSE 18.4 mph - N/A   Clear
1:00 AM 41.0 °F 31.9 °F 26.6 °F 57% 29.85 in 9.0 mi South 19.6 mph 27.6 mph N/A   Clear
2:00 AM 41.0 °F 31.1 °F 26.6 °F 57% 29.81 in 9.0 mi South 23.0 mph 32.2 mph N/A   Clear
3:00 AM 41.0 °F 31.9 °F 26.6 °F 57% 29.79 in 9.0 mi South 19.6 mph 27.6 mph N/A   Overcast
4:00 AM 39.2 °F 30.2 °F 26.6 °F 61% 29.77 in 9.0 mi South 17.3 mph - N/A   Partly Cloudy
5:00 AM 39.2 °F 31.6 °F 26.6 °F 61% 29.76 in 9.0 mi South 12.7 mph 18.4 mph N/A   Overcast
6:00 AM 39.2 °F 31.2 °F 26.6 °F 61% 29.75 in 9.0 mi South 13.8 mph - N/A   Scattered Clouds
7:00 AM 39.2 °F 30.5 °F 28.4 °F 65% 29.74 in 30.0 mi South 16.1 mph - N/A   Overcast
8:00 AM 39.2 °F 31.2 °F 28.4 °F 65% 29.73 in 30.0 mi SSW 13.8 mph 19.6 mph N/A   Overcast
9:00 AM 41.0 °F 32.5 °F 30.2 °F 65% 29.71 in 30.0 mi SSW 17.3 mph - N/A   Overcast
10:00 AM 44.6 °F 36.4 °F 32.0 °F 61% 29.70 in 30.0 mi SSW 20.7 mph 27.6 mph N/A   Overcast
11:00 AM 46.4 °F 39.0 °F 32.0 °F 57% 29.69 in 30.0 mi SSW 19.6 mph 26.5 mph N/A   Overcast
12:00 PM 48.2 °F - 32.0 °F 54% 29.68 in 30.0 mi SSW 19.6 mph 26.5 mph N/A   Overcast
1:00 PM 51.8 °F - 33.8 °F 50% 29.66 in 30.0 mi SW 20.7 mph 27.6 mph N/A   Mostly Cloudy
2:00 PM 53.6 °F - 32.0 °F 44% 29.65 in 30.0 mi WSW 28.8 mph 36.8 mph N/A   Mostly Cloudy
3:00 PM 55.4 °F - 32.0 °F 41% 29.64 in 30.0 mi WSW 21.9 mph 28.8 mph N/A   Mostly Cloudy
4:00 PM 57.2 °F - 30.2 °F 36% 29.62 in 30.0 mi WSW 19.6 mph 26.5 mph N/A   Mostly Cloudy
4:12 PM 55.4 °F - 30.2 °F 38% 29.62 in 30.0 mi West 21.9 mph - N/A Rain Light Rain Showers
5:00 PM 51.8 °F - 26.6 °F 38% 29.64 in 30.0 mi WNW 6.9 mph - N/A Rain Light Rain Showers
6:00 PM 48.2 °F - 28.4 °F 46% 29.69 in 30.0 mi West 2.3 mph - N/A   Overcast
7:00 PM 50.0 °F - 26.6 °F 40% 29.69 in 30.0 mi NW 9.2 mph - N/A   Mostly Cloudy
8:00 PM 42.8 °F 40.1 °F 26.6 °F 53% 29.72 in 30.0 mi NNW 4.6 mph - N/A   Mostly Cloudy
9:00 PM 37.4 °F 33.8 °F 26.6 °F 65% 29.73 in 15.0 mi SSE 4.6 mph - N/A   Scattered Clouds
10:00 PM 37.4 °F - 28.4 °F 70% 29.74 in 9.0 mi Variable 2.3 mph - N/A   Clear
11:00 PM 35.6 °F 30.7 °F 28.4 °F 75% 29.73 in 9.0 mi SSW 5.8 mph - N/A   Clear